Kuchera_Ratio
0.0 0.0 0.0 0.0 0.0 0.0 0.0 0.4 0.7 1.0 1.1 1.0 1.4 2.2 2.5 4.1 6.2 9.7 10.6 11.5 12.1 12.4 12.5 12.8 12.6 11.3 12.2 10.3 8.1 8.5 9.5 10.3 13.4 11.8 10.4 9.7 10.1 9.7 6.8 4.8 3.5 3.3 2.7
0.0 0.0 0.0 0.0 0.0 0.0 0.2 0.5 0.6 1.0 0.8 1.2 2.0 2.1 3.8 5.6 9.2 11.2 12.3 11.9 12.1 12.8 12.8 12.8 12.4 8.9 10.5 8.3 8.9 10.1 10.3 10.3 12.5 14.3 12.4 12.3 12.0 10.6 10.1 10.0 5.6 1.1 3.4
0.0 0.0 0.0 0.0 0.0 0.5 0.7 1.0 0.9 1.7 1.7 2.4 3.1 4.8 6.6 8.7 10.1 11.5 12.2 11.3 12.2 12.5 12.2 11.9 10.9 10.1 10.1 8.9 9.3 9.9 12.4 10.9 12.9 12.9 13.0 12.6 12.4 11.9 11.1 10.3 9.4 8.5 4.5
0.0 0.0 0.0 0.0 0.2 0.8 1.1 1.7 3.1 3.0 4.0 4.9 4.4 6.3 8.0 9.5 8.5 8.7 9.7 11.7 12.2 12.4 11.9 11.5 10.9 10.7 10.5 8.9 11.3 11.9 12.1 11.9 12.4 12.8 12.7 12.6 13.2 12.4 11.8 12.3 12.2 10.3 8.6
0.0 0.0 0.0 0.0 0.4 1.4 2.6 4.5 4.4 5.2 4.9 5.5 6.9 8.7 10.0 8.7 5.9 8.9 9.9 11.1 12.2 12.7 12.4 10.7 10.1 8.1 4.9 6.1 9.7 10.9 12.8 13.1 13.5 13.6 13.9 13.2 13.3 14.8 14.1 10.6 11.3 11.7 9.3
0.0 0.0 0.0 0.3 1.8 3.2 5.1 6.3 6.5 8.3 8.9 9.3 9.5 11.4 12.1 7.3 4.1 4.7 6.1 10.3 11.5 12.6 13.1 11.9 10.7 8.7 8.7 6.9 7.1 7.1 8.1 12.2 13.3 13.8 13.9 14.1 13.1 14.7 12.5 12.1 13.2 11.9 13.3
0.0 0.1 0.2 1.2 2.8 4.8 6.3 7.1 9.7 10.9 11.7 11.9 11.7 11.5 13.0 12.3 5.5 4.9 5.5 9.5 11.1 12.5 12.3 12.2 11.7 8.1 8.9 9.9 8.1 6.9 7.3 6.7 9.5 11.5 13.3 12.6 12.1 10.9 12.7 12.8 13.1 12.9 12.8
0.9 0.6 0.7 2.1 3.8 5.3 6.8 8.4 9.6 10.5 12.3 12.5 12.4 12.4 12.8 9.9 6.5 5.5 6.3 10.1 10.7 10.1 10.9 11.9 12.3 11.1 9.5 8.3 8.3 8.7 8.7 8.7 9.1 9.3 10.5 10.7 8.7 6.7 9.1 11.7 9.1 10.8 11.8
1.3 1.4 1.1 2.9 4.0 5.3 6.9 7.7 9.1 10.4 12.3 12.7 11.3 12.4 13.5 12.6 7.1 5.3 8.3 10.9 10.9 11.1 9.9 9.7 9.7 10.7 7.7 6.1 8.7 9.5 9.5 9.7 6.1 5.1 4.9 5.1 4.7 4.7 5.9 9.3 12.9 13.5 14.7
1.5 1.9 0.5 2.7 3.8 5.2 6.1 6.7 9.2 10.6 10.9 10.3 11.1 11.7 10.1 12.4 7.7 5.7 8.1 10.9 12.7 12.1 10.5 9.7 8.1 9.3 7.7 7.3 8.9 9.5 10.3 8.9 8.1 7.9 8.5 7.3 5.9 4.7 5.3 6.3 11.4 13.8 12.9
1.0 1.1 1.2 2.1 3.4 4.1 5.0 6.4 9.6 10.8 12.4 13.1 11.7 11.3 9.9 9.3 9.9 6.1 6.9 11.7 12.6 12.5 12.2 12.4 11.5 8.7 8.1 7.7 7.7 9.3 9.3 7.9 7.5 7.9 8.9 7.9 8.3 7.7 8.1 10.2 11.0 12.2 12.7
1.4 1.9 2.1 2.9 3.6 4.4 5.4 6.6 9.7 11.5 13.2 12.5 12.1 11.7 10.3 9.5 6.9 7.7 6.9 9.5 10.5 13.4 13.6 12.7 12.4 9.3 9.1 9.1 9.3 8.1 7.9 7.7 7.3 8.7 9.3 10.1 10.1 8.9 7.3 9.3 10.1 10.5 7.9
1.8 2.9 3.1 3.0 3.4 4.4 5.6 7.1 10.7 12.2 12.9 12.5 12.2 12.7 12.6 9.9 10.1 8.5 8.3 8.5 11.1 13.4 12.9 12.2 10.9 10.7 10.5 11.5 9.7 8.7 9.5 9.3 9.1 9.3 9.1 9.9 8.5 7.3 7.5 8.1 8.5 6.5 5.6
2.7 3.6 3.7 4.1 4.5 4.9 6.1 7.0 10.9 12.3 12.7 12.2 12.5 13.3 13.0 12.2 12.2 11.9 11.7 12.2 12.1 13.3 13.5 13.4 13.1 12.5 12.2 12.2 12.2 11.3 11.1 11.1 10.5 10.3 9.3 8.1 7.7 7.9 7.9 7.5 7.9 7.3 7.9
4.0 4.7 4.9 5.3 6.2 6.6 6.9 8.6 10.9 11.3 12.5 12.3 12.5 12.7 13.6 14.1 12.8 9.9 10.9 13.1 13.1 13.5 13.7 14.1 14.8 15.0 15.1 14.4 13.5 12.9 12.4 12.1 12.3 9.9 9.5 8.5 8.1 7.9 7.9 7.7 7.9 7.9 8.9
5.2 6.2 6.1 7.0 7.9 8.2 9.5 9.8 5.7 6.5 6.1 5.5 6.1 9.2 11.7 8.3 7.5 8.3 8.9 9.3 10.3 12.3 14.7 16.3 16.7 16.5 16.5 15.9 15.5 14.7 13.4 13.1 12.5 10.5 9.7 9.3 8.7 8.5 8.7 8.1 7.9 8.7 9.5
5.6 6.1 6.7 7.7 9.6 10.3 11.5 12.3 12.8 10.7 6.3 5.9 6.5 7.1 7.1 7.7 8.1 8.5 9.5 10.1 11.1 13.0 16.3 16.8 17.2 17.2 16.9 16.3 15.9 15.3 15.0 13.4 12.1 10.7 10.1 9.9 9.1 8.1 8.9 9.1 9.1 8.9 9.1
5.1 6.4 7.3 8.5 9.7 10.4 11.9 12.4 12.4 13.0 13.7 12.5 8.3 9.1 8.9 7.9 8.7 9.1 9.9 12.2 15.2 14.9 16.0 16.8 17.3 17.2 17.1 16.9 16.3 15.7 14.6 13.2 12.6 11.1 10.3 9.7 9.3 8.7 9.1 9.7 9.3 9.9 9.5
6.4 7.5 8.3 9.1 10.7 12.1 12.1 11.7 11.9 12.5 12.9 11.9 12.1 11.9 11.9 8.7 9.5 10.3 10.7 14.4 15.8 16.3 16.4 16.5 16.6 16.9 17.1 16.7 16.2 15.5 14.5 13.5 12.7 11.7 10.5 9.9 9.3 9.1 9.1 9.3 9.3 9.1 8.9
7.1 8.4 9.8 11.4 11.5 11.3 11.7 12.3 12.5 12.7 12.6 12.6 13.0 13.3 12.6 12.2 13.9 14.2 13.8 14.4 15.1 15.6 16.1 16.5 16.6 16.9 17.1 16.7 16.1 15.5 14.8 13.5 12.8 12.1 11.1 10.1 9.3 8.7 9.1 8.9 9.1 9.6 9.0
8.6 10.2 11.8 11.9 11.9 12.2 12.4 13.0 12.8 11.9 12.4 12.6 12.7 12.3 12.8 12.8 13.7 13.9 14.2 14.4 14.4 15.2 15.9 16.4 16.9 17.4 17.4 16.9 16.1 15.7 15.1 14.1 13.1 12.3 11.3 10.5 9.7 9.9 8.5 8.1 8.7 8.7 8.7
10.0 12.2 11.7 12.6 12.5 12.6 12.5 12.2 12.5 11.5 12.2 12.7 12.4 11.5 12.4 12.6 13.1 13.3 13.6 14.0 13.9 13.8 14.4 15.8 16.6 17.0 17.6 17.7 17.1 16.6 15.8 15.3 13.7 12.8 11.9 10.7 9.9 9.1 8.7 8.7 8.3 8.9 9.1
11.3 12.2 12.6 12.8 12.4 13.0 11.7 10.9 12.1 12.9 13.1 13.2 12.9 13.0 13.0 13.3 13.4 13.3 13.5 13.6 13.5 13.9 14.1 14.9 16.1 16.8 16.5 17.0 16.8 16.9 17.0 16.5 14.2 13.2 12.3 11.1 10.5 9.9 9.3 9.5 9.3 9.1 8.9
12.4 12.9 12.8 11.9 11.1 11.3 12.1 12.8 12.8 12.5 12.6 13.0 13.2 12.8 13.0 13.0 13.1 13.1 13.2 13.2 13.2 13.5 13.8 14.4 14.8 15.5 16.4 16.7 16.4 15.9 15.8 15.3 14.0 13.3 12.3 11.1 10.9 9.9 9.7 9.7 9.3 9.7 9.1
12.7 13.3 12.1 11.5 12.2 13.0 13.1 12.5 12.8 12.9 12.7 12.7 13.0 12.9 12.7 12.9 13.0 13.2 13.5 13.2 13.3 13.7 13.8 13.9 14.0 14.2 15.1 16.6 16.3 15.3 14.4 13.9 14.4 13.6 12.7 12.2 11.9 10.3 10.3 10.3 9.5 9.1 9.3
12.5 11.1 10.1 10.9 13.5 12.8 13.0 13.4 13.3 13.0 13.3 13.1 13.1 13.5 13.7 13.7 13.8 13.9 14.1 14.0 13.7 13.6 13.6 13.6 13.7 13.9 14.2 14.7 16.0 15.6 14.9 14.1 14.0 14.4 13.4 13.2 13.4 13.4 11.3 11.9 11.1 10.5 10.1